Latest Weather Observations for Mount Isa

IDQ60801

Issued at 6:35 pm EST Wednesday 20 August 2014 (issued every 30 minutes, with the page automatically refreshed every 10 minutes)

About weather observations | Map of weather stations | Latest weather observations for QLD | Other Formats
Station Details ID: 029127 Name: MOUNT ISA AERO Lat: -20.68 Lon: 139.49 Height: 340.3 m
Data from the previous 72 hours. | See also: Recent months at Mount Isa
Date/Time
EST
Temp
°C
App
Temp
°C
Dew
Point
Rel
Hum
%
Delta-T
°C
Wind Press
QNH
hPa
Press
MSL
hPa
Rain
since 9 am
mm
Dir
 
Spd
km/h
Gust
km/h
Spd
kts
Gust
kts
20/06:30pm 20.8 14.9 -5.6 16 10.7 S 17 22 9 12 1016.5 - 0.0
20/06:00pm 22.1 16.9 -6.4 14 11.5 SSW 13 20 7 11 1016.4 1015.5 0.0
20/05:30pm 23.0 18.5 -6.5 13 12.0 ESE 9 11 5 6 1016.2 - 0.0
20/05:00pm 23.1 17.0 -7.4 12 12.2 SSW 17 26 9 14 1016.1 - 0.0
20/04:30pm 23.0 18.4 -8.3 11 12.3 SSW 9 17 5 9 1015.9 - 0.0
20/04:00pm 23.0 16.5 -8.3 11 12.3 S 19 26 10 14 1015.9 - 0.0
20/03:30pm 23.4 15.6 -7.6 12 12.4 SSW 26 35 14 19 1016.0 - 0.0
20/03:00pm 23.0 16.9 -7.7 12 12.2 SSE 17 28 9 15 1016.3 1015.4 0.0
20/02:30pm 22.8 17.5 -7.7 12 12.1 S 13 19 7 10 1016.7 - 0.0
20/02:00pm 22.6 16.2 -7.2 13 11.9 SE 19 30 10 16 1017.1 - 0.0
20/01:30pm 22.9 16.9 -6.9 13 12.0 SSE 17 24 9 13 1017.9 - 0.0
20/01:00pm 21.3 16.5 -5.9 15 11.0 S 11 30 6 16 1018.5 - 0.0
20/12:30pm 21.4 16.5 -6.8 14 11.2 S 11 26 6 14 1019.0 - 0.0
20/12:00pm 20.7 15.4 -7.7 14 11.0 SE 13 22 7 12 1019.3 1018.4 0.0
20/11:30am 21.1 14.6 -7.7 14 11.2 S 19 22 10 12 1019.7 - 0.0
20/11:00am 20.1 13.6 -7.7 14 10.7 ESE 19 26 10 14 1020.1 - 0.0
20/10:30am 19.9 13.8 -7.7 15 10.6 ESE 17 28 9 15 1020.6 - 0.0
20/10:00am 18.9 12.3 -7.1 16 10.0 SE 20 26 11 14 1020.7 - 0.0
20/09:30am 18.0 11.0 -6.8 18 9.5 ESE 22 30 12 16 1020.8 - 0.0
20/09:00am 17.0 10.3 -7.8 17 9.2 SE 20 28 11 15 1020.7 1019.8 0.0
20/08:30am 15.1 9.3 -4.8 25 7.7 SSE 17 26 9 14 1020.5 - 0.0
20/08:00am 13.7 7.5 -4.5 28 7.0 S 19 24 10 13 1019.9 - 0.0
20/07:30am 12.3 6.2 -3.9 32 6.2 S 19 20 10 11 1019.8 - 0.0
20/07:00am 12.0 5.8 -4.4 31 6.2 S 19 22 10 12 1019.8 - 0.0
20/06:30am 11.9 6.1 -4.2 32 6.1 S 17 20 9 11 1019.5 - 0.0
20/06:00am 12.0 6.2 -4.4 31 6.2 S 17 22 9 12 1019.2 1018.3 0.0
20/05:30am 12.7 7.2 -5.2 28 6.7 SSE 15 17 8 9 1018.9 - 0.0
20/05:00am 12.2 6.3 -5.3 29 6.5 S 17 19 9 10 1018.8 - 0.0
20/04:30am 12.3 6.4 -5.6 28 6.6 S 17 19 9 10 1018.7 - 0.0
20/04:00am 12.5 6.6 -5.6 28 6.7 S 17 20 9 11 1018.7 - 0.0
20/03:30am 12.7 6.8 -6.1 26 6.9 S 17 19 9 10 1018.9 - 0.0
20/03:00am 13.0 7.1 -6.0 26 7.0 S 17 19 9 10 1018.8 1017.9 0.0
20/02:30am 13.3 7.1 -5.3 27 7.0 S 19 20 10 11 1018.7 - 0.0
20/02:00am 13.5 7.6 -5.4 26 7.1 S 17 19 9 10 1018.8 - 0.0
20/01:30am 13.6 8.2 -4.7 27 7.0 S 15 17 8 9 1019.0 - 0.0
20/01:00am 14.1 8.3 -4.6 27 7.2 S 17 20 9 11 1019.1 - 0.0
20/12:30am 14.4 9.4 -4.4 27 7.3 S 13 15 7 8 1019.2 - 0.0
20/12:00am 14.7 9.4 -3.8 27 7.3 S 15 19 8 10 1019.5 1018.7 0.0
 
Date/Time
EST
Temp
°C
App
Temp
°C
Dew
Point
Rel
Hum
%
Delta-T
°C
Wind Press
QNH
hPa
Press
MSL
hPa
Rain
since 9 am
mm
Dir
 
Spd
km/h
Gust
km/h
Spd
kts
Gust
kts
19/11:30pm 15.0 9.3 -3.6 27 7.4 S 17 22 9 12 1019.3 - 0.0
19/11:00pm 15.4 9.7 -3.7 26 7.6 S 17 19 9 10 1019.1 - 0.0
19/10:30pm 15.4 10.2 -2.4 29 7.3 SSE 15 19 8 10 1018.9 - 0.0
19/10:00pm 16.0 11.2 -2.5 28 7.6 S 13 15 7 8 1019.0 - 0.0
19/09:30pm 16.8 12.0 -2.9 26 8.1 S 13 15 7 8 1019.0 - 0.0
19/09:00pm 17.7 12.1 -3.2 24 8.6 S 17 20 9 11 1018.9 1018.0 0.0
19/08:30pm 18.1 12.5 -3.2 23 8.8 S 17 20 9 11 1018.6 - 0.0
19/08:00pm 18.7 13.0 -4.0 21 9.3 S 17 24 9 13 1018.3 - 0.0
19/07:30pm 19.2 13.5 -3.8 21 9.5 S 17 24 9 13 1017.9 - 0.0
19/07:00pm 19.8 14.5 -3.8 20 9.8 SSE 15 24 8 13 1017.7 - 0.0
19/06:30pm 20.6 15.0 -3.3 20 10.1 SSE 17 22 9 12 1017.5 - 0.0
19/06:00pm 21.6 16.1 -5.1 16 11.0 SE 15 17 8 9 1017.1 1016.3 0.0
19/05:30pm 22.4 16.1 -6.1 14 11.6 SSE 19 28 10 15 1016.9 - 0.0
19/05:00pm 22.9 17.1 -4.2 16 11.5 S 17 20 9 11 1016.9 - 0.0
19/04:30pm 23.1 17.2 -5.7 14 11.9 S 17 28 9 15 1017.1 - 0.0
19/04:00pm 23.2 16.9 -5.4 14 11.9 S 19 24 10 13 1017.1 - 0.0
19/03:30pm 23.4 16.6 -5.4 14 12.0 S 22 33 12 18 1017.2 - 0.0
19/03:00pm 22.5 16.5 -3.3 17 11.1 SSW 19 24 10 13 1017.6 1016.7 0.0
19/02:30pm 22.5 16.9 -2.9 18 11.0 SSW 17 26 9 14 1018.1 - 0.0
19/02:00pm 22.4 18.3 -0.2 22 10.3 SW 11 20 6 11 1018.4 - 0.0
19/01:30pm 21.4 16.8 -1.1 22 10.0 S 13 22 7 12 1019.1 - 0.0
19/01:00pm 21.4 16.8 -0.7 23 9.9 SSE 13 26 7 14 1019.6 - 0.0
19/12:30pm 21.0 15.7 -0.4 24 9.6 ESE 17 26 9 14 1020.2 - 0.0
19/12:00pm 20.4 15.9 -0.4 25 9.3 ESE 13 22 7 12 1020.8 1019.9 0.0
19/11:30am 20.0 14.6 1.3 28 8.6 ESE 19 30 10 16 1021.2 - 0.0
19/11:00am 19.5 13.8 0.4 27 8.6 ESE 20 32 11 17 1021.7 - 0.0
19/10:30am 19.5 14.5 1.4 30 8.3 SE 17 26 9 14 1022.1 - 0.0
19/10:00am 18.4 13.0 1.2 31 7.8 SE 19 26 10 14 1022.1 - 0.0
19/09:30am 17.3 11.7 1.3 34 7.2 SE 20 32 11 17 1022.2 - 0.0
19/09:00am 16.3 10.8 1.6 37 6.6 SSE 20 30 11 16 1022.1 1021.3 0.2
19/08:30am 14.3 10.1 1.9 43 5.5 SSE 13 17 7 9 1022.0 - 0.2
19/08:00am 12.3 8.2 2.0 49 4.5 S 13 13 7 7 1021.6 - 0.2
19/07:30am 11.1 7.0 2.1 54 3.9 S 13 13 7 7 1021.4 - 0.2
19/07:00am 11.1 9.4 1.8 52 4.0 CALM 0 0 0 0 1021.1 - 0.2
19/06:30am 11.6 8.6 2.2 52 4.1 S 7 9 4 5 1020.7 - 0.2
19/06:00am 11.4 7.6 1.9 52 4.1 S 11 13 6 7 1020.5 1019.6 0.2
19/05:30am 11.3 7.9 2.1 53 4.0 S 9 11 5 6 1020.1 - 0.2
19/05:00am 11.7 8.0 2.1 51 4.2 S 11 13 6 7 1020.0 - 0.2
19/04:30am 11.9 8.2 2.3 52 4.2 S 11 13 6 7 1019.9 - 0.2
19/04:00am 12.2 8.5 2.5 51 4.3 S 11 15 6 8 1019.9 - 0.2
19/03:30am 12.3 7.9 2.6 51 4.3 S 15 15 8 8 1019.9 - 0.2
19/03:00am 12.7 8.7 2.6 50 4.5 S 13 15 7 8 1020.0 1019.2 0.2
19/02:30am 13.5 9.4 2.3 46 5.0 S 13 13 7 7 1020.0 - 0.2
19/02:00am 13.9 9.8 2.3 45 5.2 S 13 15 7 8 1020.0 - 0.2
19/01:30am 14.0 9.9 2.4 45 5.2 S 13 15 7 8 1020.1 - 0.2
19/01:00am 14.1 10.0 2.5 45 5.2 S 13 13 7 7 1020.2 - 0.2
19/12:30am 14.8 10.7 2.1 42 5.7 S 13 15 7 8 1020.2 - 0.2
19/12:00am 14.6 10.9 2.1 43 5.6 S 11 11 6 6 1020.3 1019.5 0.2
 
Date/Time
EST
Temp
°C
App
Temp
°C
Dew
Point
Rel
Hum
%
Delta-T
°C
Wind Press
QNH
hPa
Press
MSL
hPa
Rain
since 9 am
mm
Dir
 
Spd
km/h
Gust
km/h
Spd
kts
Gust
kts
18/11:30pm 14.9 10.8 2.2 42 5.7 S 13 15 7 8 1020.5 - 0.2
18/11:00pm 12.7 8.7 2.9 51 4.4 S 13 17 7 9 1020.6 - 0.2
18/10:30pm 12.7 9.7 4.0 55 4.0 S 9 11 5 6 1020.6 - 0.2
18/10:00pm 16.0 12.7 2.4 40 6.2 SSE 9 11 5 6 1020.3 - 0.2
18/09:30pm 15.6 12.4 3.3 43 5.7 S 9 11 5 6 1020.3 - 0.2
18/09:00pm 16.9 13.6 2.6 38 6.6 S 9 11 5 6 1020.0 1019.2 0.2
18/08:30pm 17.4 13.7 2.1 36 7.0 S 11 11 6 6 1019.7 - 0.2
18/08:00pm 15.4 12.2 3.0 43 5.7 S 9 13 5 7 1019.4 - 0.2
18/07:30pm 18.2 14.0 1.9 33 7.5 SSE 13 15 7 8 1019.0 - 0.2
18/07:00pm 18.9 15.0 1.4 31 8.0 SSE 11 15 6 8 1018.6 - 0.2
18/06:30pm 20.2 15.5 0.7 27 8.9 SSE 15 19 8 10 1018.3 - 0.2
18/06:00pm 21.0 16.2 0.0 24 9.5 SE 15 20 8 11 1018.0 1017.1 0.2
18/05:30pm 21.4 15.7 -0.7 23 9.9 S 19 28 10 15 1017.9 - 0.2
18/05:00pm - - - - - S 17 35 9 19 - - 0.2
18/04:30pm 22.4 17.2 -0.2 22 10.3 SSE 17 28 9 15 1017.9 - 0.2
18/04:00pm 22.1 23.3 22.1 100 0.0 S 19 32 10 17 1018.0 - 0.2
18/03:30pm - - - - - SSE 19 28 10 15 1018.0 - 0.0
18/03:00pm 21.6 16.0 -0.3 23 9.9 S 19 28 10 15 1018.3 1017.4 0.0
18/02:30pm 21.5 15.8 -0.5 23 9.9 SE 19 28 10 15 1018.6 - 0.0
18/02:00pm 21.7 16.6 0.7 25 9.7 SE 17 24 9 13 1018.6 - 0.0
18/01:30pm 20.3 15.3 1.2 28 8.8 SSE 17 28 9 15 1019.0 - 0.0
18/01:00pm 19.8 14.9 2.0 30 8.3 SSE 17 30 9 16 1019.7 - 0.0
18/12:30pm 20.1 14.9 2.2 30 8.4 ESE 19 30 10 16 1020.2 - 0.0
18/12:00pm 19.3 14.8 2.1 31 8.0 SE 15 26 8 14 1020.9 1020.0 0.0
18/11:30am 18.8 14.0 2.5 33 7.6 ESE 17 30 9 16 1021.3 - 0.0
18/11:00am 17.7 13.7 2.9 37 6.9 SE 13 26 7 14 1021.4 - 0.0
18/10:30am 17.1 12.8 3.2 39 6.5 SE 15 28 8 15 1021.6 - 0.0
18/10:00am 16.0 12.1 3.3 42 5.9 SSE 13 17 7 9 1021.9 - 0.0
18/09:30am 15.5 10.3 3.4 44 5.6 SSE 20 32 11 17 1021.8 - 0.0
18/09:00am 14.4 9.8 3.5 48 5.0 SSE 17 26 9 14 1021.6 1020.7 0.0
18/08:30am 13.0 8.4 3.8 53 4.2 SSE 17 26 9 14 1021.4 - 0.0
18/08:00am 11.5 6.9 3.8 59 3.5 S 17 22 9 12 1021.1 - 0.0
18/07:30am 9.9 6.0 3.3 63 2.9 S 13 17 7 9 1020.9 - 0.0
18/07:00am 8.3 5.1 3.2 70 2.2 S 9 13 5 7 1020.7 - 0.0
18/06:30am 8.5 4.6 3.2 69 2.3 SSW 13 13 7 7 1020.3 - 0.0
18/06:00am 6.8 3.1 2.3 73 1.9 S 11 17 6 9 1020.3 1019.5 0.0
18/05:30am 9.5 6.7 3.1 64 2.8 SSE 7 13 4 7 1020.5 - 0.0
18/05:00am 10.7 6.6 2.4 56 3.6 S 13 17 7 9 1020.2 - 0.0
18/04:30am 11.1 5.6 2.1 54 3.9 S 20 28 11 15 1020.2 - 0.0
18/04:00am 11.2 6.9 1.1 50 4.3 S 13 19 7 10 1020.3 - 0.0
18/03:30am 11.5 7.5 0.2 45 4.7 S 11 13 6 7 1020.3 - 0.0
18/03:00am 11.4 7.2 -0.6 43 4.9 S 11 15 6 8 1020.2 1019.4 0.0
18/02:30am 11.5 6.9 -1.4 40 5.2 S 13 15 7 8 1020.3 - 0.0
18/02:00am 8.1 5.2 -1.1 52 3.6 S 4 9 2 5 1020.7 - 0.0
18/01:30am 11.7 9.7 -0.4 43 5.0 CALM 0 0 0 0 1020.8 - 0.0
18/01:00am 11.9 7.7 -0.8 41 5.2 S 11 11 6 6 1020.8 - 0.0
18/12:30am 10.7 6.8 -1.7 42 4.9 S 9 9 5 5 1020.9 - 0.0
18/12:00am 7.2 3.7 -1.4 54 3.3 SSE 7 9 4 5 1021.0 1020.1 0.0
 
Date/Time
EST
Temp
°C
App
Temp
°C
Dew
Point
Rel
Hum
%
Delta-T
°C
Wind Press
QNH
hPa
Press
MSL
hPa
Rain
since 9 am
mm
Dir
 
Spd
km/h
Gust
km/h
Spd
kts
Gust
kts
17/11:30pm 8.6 5.5 0.2 55 3.4 SSE 6 7 3 4 1020.9 - 0.0
17/11:00pm 11.3 7.7 0.6 47 4.5 SSE 9 11 5 6 1020.9 - 0.0
17/10:30pm 14.0 10.2 -0.9 36 6.2 SSE 9 11 5 6 1020.8 - 0.0
17/10:00pm 14.8 10.7 -0.5 35 6.5 S 11 13 6 7 1020.7 - 0.0
17/09:30pm 15.9 10.9 -1.1 31 7.2 S 15 17 8 9 1020.5 - 0.0
17/09:00pm 16.7 11.6 -1.9 28 7.8 S 15 19 8 10 1020.2 1019.4 0.0
17/08:30pm 17.3 11.4 -2.3 26 8.2 SSW 19 26 10 14 1019.9 - 0.0
17/08:00pm 17.6 11.7 -2.1 26 8.3 SSW 19 28 10 15 1019.6 - 0.0
17/07:30pm 17.8 11.9 -2.5 25 8.5 SSW 19 24 10 13 1019.1 - 0.0
17/07:00pm 18.2 11.7 -2.5 24 8.7 SSW 22 28 12 15 1018.7 - 0.0

Other Formats:

Comma delimited format used in spreadsheet applications
http://www.bom.gov.au/fwo/IDQ60801/IDQ60801.94332.axf

JavaScript Object Notation format (JSON) in row-major order
http://www.bom.gov.au/fwo/IDQ60801/IDQ60801.94332.json